"Pseudo-MPEC" for Hnai113

Created 2022 Nov 30 8:22:25 UT using Find_Orb

Click here for an explanation of pseudo-MPECs

 
 Astrometry: 
     Hnai113*KC2022 11 14sG\E]+SZc)W`ls/GMUGNEo,@9C=oAstrometryk'Qj\x7pa@(!Bt221
     Hnai113 KC2022 11 14O+B:C+9m7Z`ZQf)vGredacted;Zgeegvoclick(riW#e3q/1here221
     Hnai113 KC2022 11 14V0kDv\Ns).`H%K%lQ!afor3t*DQexplanationpX#YP45`YQ+U3Y221

Station data:
(221) IAS Observatory, Hakos  (S23.236367 E16.361700)  Namibia.  Observers D.
   Husar, L. Demetz. Measurer D. Husar. 0.2-m f/3 Riccardi-Honders + CCD0.5-m
   f/6.8 Corrected Dall-Kirkham + CCD.

Orbital elements:  Hnai113
   Perihelion 2022 Nov 27.90839 +/- 35.3 TT = 21:48:05 (JD 2459911.40839)
Epoch 2022 Nov 15.0 TT = JDT 2459898.5   Earth MOID: 0.0330   AutoNEOCP
M 349.69729042 +/- 21               (J2000 ecliptic)
n   0.79814048 +/- 0.402            Peri.  186.68224 +/- 60
a   1.15102075 +/- 0.387            Node   239.18823 +/- 37
e   0.1137238 +/- 0.245             Incl.    1.15275 +/- 2.6
P   1.23/451.04d           H 27.0   G  0.15   U 12.1  SR
q 1.02012226 +/- 0.284    Q 1.28191924 +/- 43.1
From 3 observations 2022 Nov. 14 (16.7 min); mean residual 0".69
Residuals in arcseconds: 
221114 221  .09+  .67+    221114 221  .19-  1.4-    221114 221  .10+  .69+    

Ephemerides (geocentric):
Date (UTC) HH   RA             Dec           delta  r     elong  mag " sig PA
---- --------  ------------   ------------  ------ ------ -----  --- --------
2022 11 30 08  05 34 12.304   +18 04 46.47  .03529 1.0201 163.1 20.6  72d  16
2022 11 30 09  05 34 20.892   +18 03 30.08  .03530 1.0201 163.1 20.6  72d  16
2022 11 30 10  05 34 29.469   +18 02 13.73  .03531 1.0201 163.1 20.6  72d  16
2022 11 30 11  05 34 38.034   +18 00 57.43  .03532 1.0201 163.1 20.6  72d  16
2022 11 30 12  05 34 46.588   +17 59 41.18  .03533 1.0201 163.1 20.6  72d  16
2022 11 30 13  05 34 55.129   +17 58 24.97  .03534 1.0201 163.1 20.6  72d  16
2022 11 30 14  05 35 03.659   +17 57 08.81  .03535 1.0201 163.1 20.6  72d  16
2022 11 30 15  05 35 12.178   +17 55 52.70  .03536 1.0201 163.1 20.6  72d  16
2022 11 30 16  05 35 20.684   +17 54 36.63  .03537 1.0202 163.1 20.6  72d  16
2022 11 30 17  05 35 29.179   +17 53 20.61  .03538 1.0202 163.1 20.6  72d  16
2022 11 30 18  05 35 37.663   +17 52 04.64  .03539 1.0202 163.1 20.6  72d  16
2022 11 30 19  05 35 46.134   +17 50 48.72  .03540 1.0202 163.1 20.6  73d  16
2022 11 30 20  05 35 54.594   +17 49 32.85  .03541 1.0202 163.1 20.6  73d  16
2022 11 30 21  05 36 03.043   +17 48 17.03  .03542 1.0202 163.1 20.6  73d  16
2022 11 30 22  05 36 11.479   +17 47 01.25  .03543 1.0202 163.1 20.6  73d  16
2022 11 30 23  05 36 19.904   +17 45 45.53  .03544 1.0202 163.1 20.6  73d  16
2022 12 01 00  05 36 28.317   +17 44 29.86  .03545 1.0202 163.1 20.6  73d  16
2022 12 01 01  05 36 36.719   +17 43 14.23  .03546 1.0202 163.2 20.6  73d  16
2022 12 01 02  05 36 45.108   +17 41 58.66  .03548 1.0202 163.2 20.6  73d  16
2022 12 01 03  05 36 53.486   +17 40 43.14  .03549 1.0202 163.2 20.6  73d  16
2022 12 01 04  05 37 01.853   +17 39 27.68  .03550 1.0202 163.2 20.7  73d  16
2022 12 01 05  05 37 10.207   +17 38 12.26  .03551 1.0202 163.2 20.7  73d  16
2022 12 01 06  05 37 18.550   +17 36 56.90  .03552 1.0202 163.2 20.7  73d  16
2022 12 01 07  05 37 26.881   +17 35 41.59  .03553 1.0202 163.2 20.7  73d  16
2022 12 01 08  05 37 35.201   +17 34 26.33  .03554 1.0202 163.2 20.7  73d  16
2022 12 01 09  05 37 43.509   +17 33 11.12  .03555 1.0202 163.2 20.7  73d  16
2022 12 01 10  05 37 51.805   +17 31 55.97  .03556 1.0202 163.2 20.7  73d  16
2022 12 01 11  05 38 00.089   +17 30 40.88  .03558 1.0202 163.2 20.7  73d  16
2022 12 01 12  05 38 08.361   +17 29 25.84  .03559 1.0202 163.2 20.7  73d  16
2022 12 01 13  05 38 16.622   +17 28 10.85  .03560 1.0202 163.2 20.7  73d  16
2022 12 01 14  05 38 24.871   +17 26 55.92  .03561 1.0202 163.2 20.7  73d  16
2022 12 01 15  05 38 33.109   +17 25 41.04  .03562 1.0202 163.2 20.7  73d  16
2022 12 01 16  05 38 41.334   +17 24 26.22  .03563 1.0202 163.2 20.7  73d  16
2022 12 01 17  05 38 49.548   +17 23 11.46  .03564 1.0202 163.2 20.7  73d  16
2022 12 01 18  05 38 57.750   +17 21 56.75  .03566 1.0203 163.2 20.7  73d  16
2022 12 01 19  05 39 05.940   +17 20 42.10  .03567 1.0203 163.2 20.7  73d  16
2022 12 01 20  05 39 14.119   +17 19 27.51  .03568 1.0203 163.2 20.7  73d  16
2022 12 01 21  05 39 22.286   +17 18 12.97  .03569 1.0203 163.2 20.7  73d  16
2022 12 01 22  05 39 30.441   +17 16 58.49  .03570 1.0203 163.2 20.7  73d  16
2022 12 01 23  05 39 38.584   +17 15 44.07  .03572 1.0203 163.2 20.7  73d  16
2022 12 02 00  05 39 46.716   +17 14 29.71  .03573 1.0203 163.2 20.7  73d  16
2022 12 02 01  05 39 54.836   +17 13 15.41  .03574 1.0203 163.2 20.7  73d  16
2022 12 02 02  05 40 02.944   +17 12 01.16  .03575 1.0203 163.2 20.7  73d  16
2022 12 02 03  05 40 11.040   +17 10 46.98  .03576 1.0203 163.2 20.7  73d  16
2022 12 02 04  05 40 19.124   +17 09 32.85  .03578 1.0203 163.2 20.7  73d  16
2022 12 02 05  05 40 27.197   +17 08 18.79  .03579 1.0203 163.2 20.7  73d  16
2022 12 02 06  05 40 35.258   +17 07 04.78  .03580 1.0203 163.2 20.7  73d  16
2022 12 02 07  05 40 43.307   +17 05 50.84  .03581 1.0203 163.2 20.7  73d  16